This demonstration page uses our WeatherBlox Daily Observations layout. Learn more.

Hourly Observations for February 18, 2020

Temp ( °F °C ) Dew Point ( °F °C ) Humidity (%) Winds ( mph kmh ) Pressure ( in mb ) Visibility ( mi km ) Precip ( " mm )
12:15 am 00:15 Clear 28 -2.1 24 -4.2 86 86 N 12 19 30.31 1026 10 16.0934 0 0
12:35 am 00:35 Clear 28 -2.5 24 -4.4 87 87 N 8 13 30.32 1027 10 16.0934 0 0
12:55 am 00:55 Clear 28 -2.5 24 -4.3 88 88 N 5 7 30.34 1027 10 16.0934 0 0
1:15 am 01:15 Clear 27 -2.7 24 -4.6 87 87 Calm 30.34 1027 10 16.0934 0 0
1:35 am 01:35 Partly Cloudy 26 -3.2 23 -4.8 89 89 NNW 5 7 30.35 1028 10 16.0934 0 0
1:55 am 01:55 Clear 26 -3.1 23 -4.8 88 88 NNW 6 9 30.35 1028 10 16.0934 0 0
2:15 am 02:15 Clear 26 -3.5 23 -5.1 89 89 NNW 5 7 30.36 1028 10 16.0934 0 0
2:35 am 02:35 Clear 25 -3.8 23 -5.2 90 90 NNW 3 6 30.36 1028 10 16.0934 0 0
2:55 am 02:55 Partly Cloudy 24 -4.5 22 -5.7 91 91 NW 3 6 30.37 1028 10 16.0934 0 0
3:15 am 03:15 Partly Cloudy 24 -4.6 22 -5.7 92 92 NNW 3 6 30.37 1028 10 16.0934 0 0
3:35 am 03:35 Partly Cloudy 23 -5.2 21 -6.1 93 93 Calm 30.38 1029 10 16.0934 0 0
3:55 am 03:55 Clear 21 -6.1 19 -7 93 93 Calm 30.39 1029 7 11.26538 0 0
4:15 am 04:15 Clear 22 -5.7 20 -6.4 95 95 NW 5 7 30.39 1029 7 11.26538 0 0
4:35 am 04:35 Clear 22 -5.5 21 -6.1 96 96 NNW 6 9 30.39 1029 10 16.0934 0 0
4:55 am 04:55 Clear 22 -5.4 21 -6.3 93 93 NNW 7 11 30.4 1029 10 16.0934 0 0
5:15 am 05:15 Clear 21 -5.9 19 -7 92 92 NNW 6 9 30.41 1030 10 16.0934 0 0
5:35 am 05:35 Clear 21 -6 19 -7.1 92 92 NW 3 6 30.42 1030 10 16.0934 0 0
5:55 am 05:55 Clear 20 -6.6 18 -7.6 93 93 NW 5 7 30.43 1031 10 16.0934 0 0
6:15 am 06:15 Clear 19 -7 18 -8 93 93 NW 5 7 30.45 1031 10 16.0934 0 0
6:35 am 06:35 Partly Cloudy 20 -6.7 18 -7.6 93 93 NW 6 9 30.45 1031 10 16.0934 0 0
6:55 am 06:55 Partly Cloudy 20 -6.5 19 -7.5 93 93 NW 5 7 30.45 1031 10 16.0934 0 0
7:15 am 07:15 Partly Cloudy 22 -5.8 20 -6.8 93 93 NW 5 7 30.45 1031 10 16.0934 0 0
7:35 am 07:35 Sunny 22 -5.4 20 -6.4 93 93 NW 6 9 30.45 1031 10 16.0934 0 0
7:55 am 07:55 Partly Cloudy 23 -5 21 -6.1 92 92 WNW 5 7 30.46 1031 10 16.0934 0 0
8:15 am 08:15 Mostly Cloudy 24 -4.5 22 -5.6 92 92 WNW 3 6 30.46 1031 10 16.0934 0 0
8:35 am 08:35 Cloudy 25 -3.8 23 -5 91 91 WNW 3 6 30.46 1032 10 16.0934 0 0
8:55 am 08:55 Mostly Cloudy 26 -3.4 24 -4.7 91 91 W 3 6 30.47 1032 10 16.0934 0 0
9:15 am 09:15 Cloudy 28 -2.3 25 -4.1 88 88 WNW 5 7 30.47 1032 10 16.0934 0 0
9:35 am 09:35 Cloudy 29 -1.4 25 -3.7 85 85 Calm 30.46 1031 10 16.0934 0 0
9:55 am 09:55 Cloudy 32 -0.2 25 -3.8 77 77 WNW 6 9 30.45 1031 10 16.0934 0 0
10:15 am 10:15 Cloudy 32 0.2 24 -4.7 70 70 WNW 6 9 30.45 1031 10 16.0934 0 0
10:35 am 10:35 Cloudy 34 0.9 23 -4.9 66 66 W 5 7 30.45 1031 10 16.0934 0 0
10:55 am 10:55 Cloudy 34 1.1 23 -5.1 64 64 NW 3 6 30.45 1031 10 16.0934 0 0
11:15 am 11:15 Cloudy 34 1.2 22 -5.4 62 62 WNW 3 6 30.44 1031 10 16.0934 0 0
11:35 am 11:35 Mostly Cloudy 35 1.5 22 -5.8 59 59 Calm 30.44 1031 10 16.0934 0 0
11:55 am 11:55 Sunny 36 2.2 22 -5.8 56 56 NW 5 7 30.43 1031 10 16.0934 0 0
12:15 pm 12:15 Sunny 37 2.7 21 -5.9 54 54 W 3 6 30.43 1030 10 16.0934 0 0
12:35 pm 12:35 Sunny 38 3.3 21 -6.3 50 50 WSW 6 9 30.41 1030 10 16.0934 0 0
12:55 pm 12:55 Sunny 39 3.9 20 -6.8 46 46 SW 3 6 30.4 1029 10 16.0934 0 0
1:15 pm 13:15 Sunny 39 4 20 -6.6 46 46 W 6 9 30.39 1029 10 16.0934 0 0
1:35 pm 13:35 Sunny 40 4.2 18 -7.8 42 42 WNW 7 11 30.38 1029 10 16.0934 0 0
1:55 pm 13:55 Sunny 42 5.3 17 -8.1 38 38 W 5 7 30.37 1028 10 16.0934 0 0
2:15 pm 14:15 Sunny 41 5.1 17 -8.3 38 38 WSW 8 13 30.36 1028 10 16.0934 0 0
2:35 pm 14:35 Sunny 42 5.6 17 -8.4 36 36 W 6 9 30.35 1028 10 16.0934 0 0
2:55 pm 14:55 Sunny 42 5.8 17 -8.2 36 36 SW 3 6 30.35 1028 10 16.0934 0 0
3:15 pm 15:15 Sunny 42 5.6 17 -8.6 36 36 WSW 5 7 30.35 1028 10 16.0934 0 0
3:35 pm 15:35 Sunny 43 5.9 17 -8.4 35 35 WSW 3 6 30.34 1027 10 16.0934 0 0
3:55 pm 15:55 Sunny 42 5.6 17 -8.3 36 36 W 8 13 30.34 1028 10 16.0934 0 0
4:15 pm 16:15 Sunny 43 5.9 18 -8 36 36 Calm 30.34 1027 10 16.0934 0 0
4:35 pm 16:35 Sunny 43 6.1 18 -7.8 37 37 WSW 3 6 30.34 1027 10 16.0934 0 0
4:55 pm 16:55 Partly Cloudy 42 5.7 18 -7.9 37 37 SW 5 7 30.34 1027 10 16.0934 0 0
5:15 pm 17:15 Partly Cloudy 42 5.5 18 -8 37 37 SSW 5 7 30.33 1027 10 16.0934 0 0
5:35 pm 17:35 Sunny 41 5.2 17 -8.1 38 38 SSW 5 7 30.35 1028 10 16.0934 0 0
5:55 pm 17:55 Sunny 40 4.6 18 -8 40 40 Calm 30.34 1027 10 16.0934 0 0
6:15 pm 18:15 Sunny 38 3.6 18 -7.9 43 43 S 3 6 30.36 1028 10 16.0934 0 0
6:35 pm 18:35 Clear 35 1.7 17 -8.4 47 47 S 5 7 30.38 1029 10 16.0934 0 0
6:55 pm 18:55 Clear 34 1 17 -8.1 51 51 S 6 9 30.39 1029 10 16.0934 0 0
7:15 pm 19:15 Clear 32 0.1 17 -8.5 53 53 SSE 6 9 30.4 1030 10 16.0934 0 0
7:35 pm 19:35 Clear 31 -0.7 17 -8.1 58 58 SSE 7 11 30.41 1030 10 16.0934 0 0
7:55 pm 19:55 Clear 29 -1.4 17 -8.5 59 59 SSE 5 7 30.43 1030 10 16.0934 0 0
8:15 pm 20:15 Clear 29 -1.7 17 -8.6 60 60 SSE 6 9 30.43 1031 10 16.0934 0 0
8:35 pm 20:35 Clear 28 -2.5 17 -8.6 63 63 SSE 3 6 30.45 1031 10 16.0934 0 0
8:55 pm 20:55 Clear 27 -2.6 18 -7.8 68 68 SSE 6 9 30.46 1032 10 16.0934 0 0
9:15 pm 21:15 Clear 28 -2.3 17 -8.1 65 65 SSE 6 9 30.46 1031 10 16.0934 0 0
9:35 pm 21:35 Clear 28 -2.2 17 -8.3 63 63 S 7 11 30.47 1032 10 16.0934 0 0
9:55 pm 21:55 Clear 26 -3.2 17 -8.3 68 68 S 6 9 30.48 1032 10 16.0934 0 0
10:15 pm 22:15 Clear 27 -3 17 -8.6 66 66 S 6 9 30.48 1032 10 16.0934 0 0
10:35 pm 22:35 Clear 26 -3.5 17 -8.6 68 68 S 6 9 30.48 1032 10 16.0934 0 0
10:55 pm 22:55 Clear 27 -3 17 -8.5 66 66 S 7 11 30.48 1032 10 16.0934 0 0
11:15 pm 23:15 Clear 28 -2 17 -8.1 63 63 S 7 11 30.47 1032 10 16.0934 0 0
11:35 pm 23:35 Clear 29 -1.7 17 -8.3 61 61 S 9 15 30.46 1032 10 16.0934 0 0
11:55 pm 23:55 Clear 29 -1.8 17 -8.2 62 62 N 6 9 30.48 1032 10 16.0934 0 0

Powered by AerisWeather